Regional Weather Roundup
Issued by NWS

Home | Current Version | Previous Version | Text Only | Print | Product List | Glossary On
Versions: 1 2 3 4 5 6 7 8 9 10 11 12 13 14 15 16 17 18 19 20 21 22 23 24 25 26 27 28 29 30 31 32 33 34 35 36 37 38 39 40 41 42 43 44 45 46 47 48 49 50
385
ASUS42 KFFC 182010
RWRGA
WEATHER ROUNDUP FOR GEORGIA
NATIONAL WEATHER SERVICE PEACHTREE CITY GA
300 PM EST WED JAN 18 2017

NOTE: "FAIR" INDICATES FEW OR NO CLOUDS BELOW 12,000 FEET WITH NO
SIGNIFICANT WEATHER AND/OR OBSTRUCTIONS TO VISIBILITY.

* = USE WITH CAUTION. THE STATIONS MARKED WITH AN ASTERISK MAY NOT
REPORT WEATHER SUCH AS PRECIPITATION, FOG, OR THUNDER AND ARE NOT
QUALITY CONTROLLED BY NWS.

THE REMARK "TC" DENOTES TEMPERATURE READING IN DEGREES CELSIUS.

GAZ001>058-182100-
NORTH GEORGIA

CITY           SKY/WX    TMP DP  RH WIND       PRES   REMARKS
ATLANTA        PTSUNNY   68  52  56 NW10      30.09F
ATHENS         MOSUNNY   76  45  33 W9G16     30.04F
CHAMBLEE       MOSUNNY   70  44  39 W15       30.08F
PEACHTREE CITY CLOUDY    68  57  68 VRB7      30.11F
ROME           CLOUDY    69  47  45 W5        30.09S
WEST ATLANTA   MOSUNNY   68  47  46 SW8       30.09F
GAINESVILLE    PTSUNNY   72  44  36 W9        30.06F
CARTERSVILLE   SUNNY     67  51  56 VRB5      30.10S


CITY           SKY/WX    TMP DP  RH WIND       PRES   REMARKS
DALTON*        MOSUNNY   63  48  59 N6        30.10S
LAWRENCEVILLE* MOSUNNY   72  46  40 W12G17    30.09F
MARIETTA       PTSUNNY   70  46  42 NW7       30.09F
KENNESAW*      MOSUNNY   66  48  52 NW12      30.09F
CANTON*        SUNNY     68  32  26 NW10G16   30.09S
$$

GAZ059>098-102>109-182100-
CENTRAL GEORGIA

CITY           SKY/WX    TMP DP  RH WIND       PRES   REMARKS
AUGUSTA-BUSH   MOSUNNY   79  57  46 NW9       30.00F
AUGUSTA-DANIEL MOSUNNY   79  53  40 W13G23    30.01F
COLUMBUS       PTSUNNY   74  58  57 N9        30.09F
MACON          MOSUNNY   73  60  63 NW12G18   30.09S
ROBINS AFB     PTSUNNY   74  62  64 NW10      30.07F


CITY           SKY/WX    TMP DP  RH WIND       PRES   REMARKS
LAGRANGE*      CLOUDY    69  64  82 N6        30.12S
SYLVANIA*      MOSUNNY  N/A N/A N/A W14G21    30.04S
MILLEDGEVILLE* PTSUNNY   73  63  68 W3        30.06S
$$

GAZ099>101-110>166-182100-
SOUTH GEORGIA

CITY           SKY/WX    TMP DP  RH WIND       PRES   REMARKS
SAVANNAH       MOSUNNY   77  58  51 W20G25    30.03F
VALDOSTA       MOSUNNY   76  61  59 VRB3      30.10F
ALMA           MOSUNNY   76  60  57 W12G21    30.08F
ST SIMONS      MOSUNNY   76  60  57 W10       30.07F
FT STEWART     SUNNY     75  60  60 SW8       30.04F
ALBANY         PTSUNNY   75  60  59 NW7       30.11F
HUNTER AFB     SUNNY     77  61  57 W16       30.02F
MOODY AFB      PTSUNNY   75  61  61 NW9G17    30.09F
BRUNSWICK      MOSUNNY   77  64  65 NW10      30.08F


CITY           SKY/WX    TMP DP  RH WIND       PRES   REMARKS
BAINBRIDGE*    MOSUNNY   77  63  61 W6        30.11F
MOULTRIE*      MOSUNNY   73  63  68 NW9       30.12F
VIDALIA*       PTSUNNY   79  64  61 W9G16     30.07F
WAYCROSS*      MOSUNNY   80  65  61 W12       30.09F
DOUGLAS*       MOSUNNY   75  57  53 W10G17    30.11F
$$




USA.gov is the U.S. government's official web portal to all federal, state and local government web resources and services.